METEOR 2-7 DEB, 43300

Orbit data source: Space-Track

METEOR 2-7 DEB, 43300 is space debris in LEO originally from a launch on Thu, 14 May 1981 UTC launched from the Plesetsk Missile And Space Complex (PKMTR). Debris objects in space refer to the collection of defunct objects orbiting the Earth. Examples of debris include non-operational satellites, rocket bodies, and fragments generated from explosions, collisions, or faulty payload assembly.

Loading next visibility...
Identifier
43300, 1981-043X
Orbit
LEO
Country
Flag of CISCIS
Related business
Manufacturer
Unknown
Mission
Spacecraft
Bus & Motor
Unknown
Mass
Unknown
Launch date (UTC)
1981-05-14 (44 years ago)
Launch vehicle
Unknown
Launch site
Plesetsk Missile And Space Complex (PKMTR)
Object type
Payload
Rocket body
Debris
Shape & HBR
Unknown shape, 0.1 m
Radar Cross Section
Small (<0.1 m²)

Expand to show TLE details & history
Last TLE update: 2 weeks ago

TLE from 2 weeks ago
0 METEOR 2-7 DEB
1 43300U 81043X   25284.79996994  .00006139  00000-0  23218-2 0  9996
2 43300  81.2546 307.0062 0034277  30.3623 329.9535 14.30824122519723
Epoch: 2025-10-11T19:11Z
TLE epoch observation values (Epoch: 2025-10-11T19:11:57.402Z)
Latitude
-0.00003°
Longitude
-1.60924°
Altitude
770.657 km
Speed
7.48 km/s
True Right ascension
20h 28m 01s
True Declination
0° 00' 00"
Sunlit
Object was in daylight at epoch
Visualization orbit readout
Latitude
Unknown
Longitude
Unknown
Altitude
Unknown
Speed
Unknown
Apparent Right ascension
Unknown
Apparent Declination
Unknown
Sunlit
N/A
Visualization observer readout
Local Sidereal Time
19:24:28
Azimuth
Unknown
Elevation
Unknown
Doppler factor
Unknown
Orbital elements
Apogee altitude
810.68 km
Perigee altitude
761.566 km
Semi-major axis
7,164.26 km
Eccentricity
0.00343
Inclination
81.2546°
RAAN
307.0062°
Arg. of periapsis
30.3623°
True anomaly
329.7561°
Mean anomaly
329.9535°
Eccentric anomaly
329.85487°
Mean motion
3.5792 °/min
Orbital period
100.58 mins
BSTAR
0.0023218
Loading maneuver chart data...
Computing Atmospheric mass density...
Loading historical data...
Loading historical data...
Loading historical data...
Loading historical data...
Loading historical data...
Loading historical data...
Loading historical data...

Documentation

Showing up to 5 results
|